Home > Weather > Sangerhausen > Past weeks

Flag for Germany Past Weather in Sangerhausen, Saxony-Anhalt, Germany — Yesterday and Last 2 Weeks

Now
75 °F

Clear.


Feels Like: 78 °F
Forecast: 56 / 87 °F
Wind: 6 mph from East

Location: Erfurt-Bindersleben

Current Time: Aug 24, 2016 at 10:05:31 PM

Latest Report: Aug 24, 2016 at 9:20 PM


Visibility: 10 mi

Pressure: 30.21 "Hg

Humidity: 50%

Dew Point: 55 °F

Location of SangerhausenLocation

Past Weather in Sangerhausen — Graph

°F

Sangerhausen Temperature Yesterday

Maximum temperature yesterday: 81 °F (at 2:50 PM)
Minimum temperature yesterday: 57 °F (at 4:50 AM)
Average temperature yesterday: 69 °F

High & Low Weather Summary for the Past Weeks

 TemperatureHumidityPressure
High86 °F (Aug 24, 1:50 PM)100% (Aug 10, 1:50 AM)30.36 "Hg (Aug 10, 1:50 AM)
Low39 °F (Aug 11, 5:20 AM)29% (Aug 18, 4:50 PM)29.80 "Hg (Aug 18, 4:50 PM)
Average63 °F69%30.12 "Hg
* Reported Aug 9 8:20 PM — Aug 24 8:50 PM, Sangerhausen, Weather by CustomWeather, © 2016

Note: Actual official high and low records may vary slightly from our data, if they occured in-between our weather recording intervals... More about our weather records

Advertising

Sangerhausen Weather History for the Previous 24 Hours

Scroll right to see more
 ConditionsComfort  
Time TempWeatherWind HumidityBarometerVisibility
8:50 PM
Wed, Aug 24
77 °FSunny.7 mph47%30.21 "Hg10 mi
8:20 PM79 °FSunny.6 mph45%30.21 "Hg10 mi
7:50 PM81 °FSunny.7 mph39%30.21 "Hg10 mi
7:20 PM82 °FPassing clouds.9 mph37%30.21 "HgN/A
6:50 PM84 °FPassing clouds.8 mph35%30.21 "HgN/A
6:20 PM84 °FPassing clouds.8 mph35%30.21 "HgN/A
5:50 PM86 °FPassing clouds.8 mph33%30.21 "HgN/A
5:20 PM86 °FPassing clouds.8 mph35%30.21 "HgN/A
4:50 PM86 °FPassing clouds.7 mph35%30.21 "HgN/A
4:20 PM86 °FPassing clouds.6 mph33%30.24 "HgN/A
3:50 PM86 °FPassing clouds.6 mph35%30.24 "HgN/A
3:20 PM86 °FPassing clouds.8 mph35%30.24 "HgN/A
2:50 PM86 °FPassing clouds.6 mph33%30.24 "HgN/A
2:20 PM86 °FPassing clouds.8 mph35%30.24 "HgN/A
1:50 PM86 °FSunny.6 mph38%30.24 "Hg10 mi
1:20 PM84 °FSunny.5 mph37%30.27 "Hg10 mi
12:50 PM82 °FSunny.3 mph42%30.27 "Hg10 mi
12:20 PM82 °FPassing clouds.6 mph45%30.27 "HgN/A
11:50 AM81 °FPassing clouds.5 mph48%30.30 "HgN/A
11:20 AM79 °FSunny.5 mph51%30.30 "Hg10 mi
10:50 AM75 °FPassing clouds.3 mph57%30.30 "HgN/A
10:20 AM73 °FPassing clouds.3 mph61%30.30 "HgN/A
9:50 AM72 °FPassing clouds.3 mph65%30.30 "HgN/A
9:20 AM72 °FSunny.3 mph65%30.30 "Hg10 mi
8:50 AM70 °FSunny.2 mph69%30.30 "Hg10 mi
8:20 AM66 °FSunny.2 mph73%30.30 "Hg10 mi
7:50 AM64 °FSunny.3 mph78%30.30 "Hg10 mi
7:20 AM61 °FSunny.5 mph88%30.30 "Hg10 mi
6:50 AM61 °FClear.3 mph88%30.30 "Hg10 mi
6:20 AM59 °FClear.5 mph94%30.30 "Hg10 mi
5:50 AM61 °FClear.5 mph88%30.30 "Hg10 mi
5:20 AM61 °FClear.6 mph88%30.30 "Hg10 mi
4:50 AM61 °FClear.No wind88%30.30 "Hg10 mi
4:20 AM61 °FClear.No wind88%30.30 "Hg10 mi
3:50 AM63 °FClear.No wind83%30.30 "Hg10 mi
3:20 AM64 °FClear.2 mph83%30.30 "Hg10 mi
2:50 AM63 °FClear.2 mph88%30.30 "Hg10 mi
2:20 AM64 °FClear.1 mph83%30.30 "Hg10 mi
1:50 AM64 °FClear.2 mph83%30.30 "Hg10 mi
1:20 AM66 °FClear.2 mph78%30.33 "Hg10 mi
12:50 AM66 °FClear.2 mph78%30.33 "Hg10 mi
12:20 AM66 °FClear.2 mph78%30.33 "Hg10 mi
11:50 PM
Tue, Aug 23
68 °FClear.2 mph73%30.33 "Hg10 mi
11:20 PM68 °FClear.3 mph73%30.33 "Hg10 mi
10:50 PM68 °FClear.5 mph73%30.33 "Hg10 mi
10:20 PM70 °FPassing clouds.3 mph69%30.33 "HgN/A
Weather by CustomWeather, © 2016

See weather overviewHow to use our weather pages